SCP
0 0 0 0 0 0 0 0 0 0 0 0 0 0 0 0 0 0 0 0 0 0 0 0 0 0 0 0 0 0 0 0 0 0 0 0 0 0 0 0 0 0 0
0 0 0 0 0 0 0 0 0 0 0 0 0 0 0 0 0 0 0 0 0 0 0 0 0 0 0 0 0 0 0 0 0 0 0 0 0 0 0 0 0 0 0
0 0 0 0 0 0 0 0 0 0 0 0 0 0 0 0 0 0 0 0 0 0 0 0 0 0 0 0 0 0 0 0 0 0 0 0 0 0 0 0 0 0 0
0 0 0 0 0 0 0 0 0 0 0 0 0 0 0 0 0 0 0 0 0 0 0 0 0 0 0 0 0 0 0 0 0 0 0 0 0 0 0 0 0 0 0
0 0 0 0 0 0 0 0 0 0 0 0 0 0 0 0 0 0 0 0 0 0 0 0 0 0 0 0 0 0 0 0 0 0 0 0 0 0 0 0 0 0 0
0 0 0 0 0 0 0 0 0 0 0 0 0 0 0 0 0 0 0 0 0 0 0 0 0 0 0 0 0 0 0 0 0 0 0 0 0 0 0 0 0 0 0
0 0 0 0 0 0 0 0 0 0 0 0 0 0 0 0 0 0 0 0 0 0 0 0 0 0 0 0 0 0 0 0 0 0 0 0 0 0 0 0 0 0 0
0 0 0 0 0 0 0 0 0 0 0 0 0 0 0 0 0 0 0 0 0 0 0 0 0 0 0 0 0 0 0 0 0 0 0 0 0 0 0 0 0 0 0
0 0 0 0 0 0 0 0 0 0 0 0 0 0 0 0 0 0 0 0 0 0 0 0 0 0 0 0 0 0 0 0 0 0 0 0 0 0 0 0 0 0 0
0 0 0 0 0 0 0 0 0 0 0 0 0 0 0 0 0 0 0 0 0 0 0 0 0 0 0 0 0 0 0 0 0 0 0 0 0 0 0 0 0 0 0
0 0 0 0 0 0 0 0 0 0 0 0 0 0 0 0 0 0 0 0 0 0 0 0 0 0 0 0 0 0 0 0 0 0 0 0 0 0 0 0 0 0 0
-0 -0 -0 0 0 0 0 0 0 0 0 0 0 0 0 0 0 0 0 0 0 0 0 0 0 0 0 0 0 0 0 0 0 0 0 0 0 0 0 0 0 0 0
-0 -0 -0 -0 -0 -0 -0 0 0 0 0 0 0 0 0 0 0 0 0 0 0 0 0 0 0 0 0 0 0 0 0 0 0 0 0 0 0 0 0 0 0 0 0
0 0 0 0 0 0 0 0 0 0 0 0 0 0 0 0 0 0 0 0 0 0 0 0 0 0 0 0 0 0 0 0 0 0 0 0 0 0 0 0 0 0 0
0 0 0 0 0 0 0 0 0 0 0 0 0 0 0 0 0 0 0 0 0 0 0 0 0 0 0 0 0 0 0 0 0 0 0 0 0 0 0 0 0 0 0
0 0 0 0 0 0 0 0 0 0 0 0 0 0 0 0 0 0 0 0 0 0 0 0 0 0 0 0 0 0 0 0 0 0 0 0 0 0 0 0 0 0 0
0 0 0 0 0 0 0 0 0 0 0 0 0 0 0 0 0 0 0 0 0 0 0 0 0 0 0 0 0 0 0 0 0 0 0 0 0 0 0 0 0 0 0
0 0 0 0 0 0 0 0 0 0 0 0 0 0 0 0 0 0 0 0 0 0 0 0 0 0 0 0 0 0 0 0 0 0 0 0 0 0 0 0 0 0 0
0 0 0 0 0 0 0 0 0 0 0 0 0 0 0 0 0 0 0 0 0 0 0 0 0 0 0 0 0 0 0 0 0 0 0 0 0 0 0 0 0 0 0
0 0 0 0 0 0 0 0 0 0 0 0 0 0 0 0 0 0 0 0 0 0 0 0 0 0 0 0 0 0 0 0 0 0 0 0 0 0 0 0 0 0 0
0 0 0 0 0 0 0 0 0 0 0 0 0 0 0 0 0 0 0 0 0 0 0 0 0 0 0 0 0 0 0 0 0 0 0 0 0 0 0 0 0 0 0
0 0 0 0 0 0 0 0 0 0 0 0 0 0 0 0 0 0 0 0 0 0 0 0 0 0 0 0 0 0 0 0 0 0 0 0 0 0 0 0 0 0 0
0 0 0 0 0 0 0 0 0 0 0 0 0 0 0 0 0 0 0 0 0 0 0 0 0 0 0 0 0 0 0 0 0 0 0 0 0 0 0 0 0 0 0
0 0 0 0 0 0 0 0 0 0 0 0 0 0 0 0 0 0 0 0 0 0 0 0 0 0 0 0 0 0 0 0 0 0 0 0 0 0 0 0 0 0 0
0 0 0 0 0 0 0 0 0 0 0 0 0 0 0 0 0 0 0 0 0 0 0 0 0 0 0 0 0 0 0 0 0 0 0 0 0 0 0 0 0 0 0
0 0 0 0 0 0 0 0 0 0 0 0 0 0 0 0 0 0 0 0 0 0 0 0 0 0 0 0 0 0 0 0 0 0 0 0 0 0 0 0 0 0 0
Wind_Speed
6 6 6 5 5 5 6 7 7 6 8 10 11 11 12 12 11 10 10 10 10 8 6 6 5 4 3 2 2 2 2 3 4 3 3 3 3 4 5 5 5 6 8
6 6 6 4 4 5 5 6 7 8 8 9 10 10 10 11 11 12 12 10 10 8 6 5 4 3 3 2 2 3 3 4 4 5 3 3 5 5 5 6 7 7 6
6 5 4 3 3 4 5 7 8 9 9 9 10 10 10 10 11 11 12 10 9 7 6 4 3 3 2 2 3 3 3 4 4 4 4 3 4 4 4 6 7 7 8
5 4 2 1 3 5 7 8 9 10 10 10 10 10 10 11 12 12 12 11 10 8 6 5 3 1 2 3 4 5 4 4 4 4 4 4 4 5 4 5 6 5 7
5 4 3 3 6 7 9 9 10 11 12 12 13 13 12 11 11 13 12 11 9 7 5 4 2 1 5 5 5 5 5 4 4 4 4 4 4 4 4 4 8 6 7
7 7 7 8 9 10 11 12 12 13 13 13 13 13 12 10 18 19 13 10 8 6 4 3 1 2 3 5 8 8 7 5 5 4 4 6 6 5 5 7 7 8 6
9 9 10 11 12 11 12 13 13 13 13 13 12 13 14 16 19 18 16 9 7 5 4 2 1 2 3 3 6 9 10 13 13 7 6 6 6 6 6 8 8 9 10
9 10 10 11 12 12 13 13 12 11 11 11 12 12 12 13 17 16 14 8 6 5 3 2 0 2 4 6 5 5 5 6 8 6 6 8 8 8 8 9 9 8 7
9 9 9 10 11 11 12 11 10 10 11 10 10 10 10 11 14 13 10 5 4 4 2 0 2 3 9 11 5 3 5 5 10 15 16 14 17 19 16 7 5 6 9
8 8 9 9 10 11 11 10 9 9 9 9 9 8 8 6 9 10 9 3 3 2 0 1 4 7 10 11 4 3 5 6 6 7 8 10 10 12 15 6 3 5 7
8 9 10 10 10 10 9 9 9 9 9 9 9 7 6 6 6 7 8 3 2 1 1 2 3 9 11 12 9 3 9 10 3 4 6 7 6 5 5 5 5 6 8
9 10 10 9 8 8 9 8 7 8 8 7 7 7 5 5 7 7 7 4 2 2 1 2 4 11 12 12 9 12 15 11 3 5 6 7 6 6 6 6 7 8 10
9 9 9 9 8 7 7 7 6 5 5 5 5 5 3 3 4 7 6 6 7 2 2 7 9 11 11 8 11 13 9 4 4 5 7 7 6 6 7 7 7 8 10
9 7 7 7 7 6 5 5 5 4 4 4 4 3 2 2 1 1 1 2 4 4 3 4 8 10 8 9 9 7 4 5 5 5 7 8 8 6 7 6 8 9 10
7 6 6 6 6 6 6 5 5 3 4 4 3 2 2 0 2 4 2 2 2 2 2 2 2 3 4 4 4 4 4 5 5 5 7 8 8 8 8 7 6 7 8
6 5 4 4 4 4 4 5 8 7 9 8 5 3 0 2 4 7 8 9 9 10 5 2 3 3 4 5 6 6 6 5 5 6 7 7 8 8 9 8 7 8 10
6 5 4 4 4 3 3 3 3 5 8 8 8 6 5 5 6 7 8 8 8 7 3 2 3 4 4 4 5 5 6 6 5 6 7 7 7 8 8 9 9 9 10
6 6 5 3 3 3 3 2 2 2 2 3 5 7 7 6 6 7 8 6 3 3 2 3 4 4 4 5 5 5 6 7 6 6 7 7 7 8 9 9 9 10 11
5 4 4 3 3 3 3 2 2 2 2 2 2 4 6 5 6 7 6 2 2 3 3 3 4 4 5 5 5 5 6 7 7 7 7 8 7 7 9 9 10 15 14
4 8 6 3 3 3 2 2 2 1 1 1 2 2 3 2 1 3 2 2 3 3 4 4 5 5 5 5 5 6 6 7 7 7 7 7 7 8 10 12 12 12 12
4 5 7 4 2 2 2 1 1 0 1 2 2 4 5 0 1 3 3 3 3 4 4 5 5 5 5 5 5 6 8 8 8 8 8 8 8 9 10 11 12 13 13
4 3 3 3 2 1 1 1 0 1 1 2 2 3 6 2 2 3 3 4 4 4 4 5 6 6 5 6 6 7 8 9 8 8 8 9 9 11 11 12 12 12 12
4 4 3 2 1 1 1 1 1 1 2 2 3 3 3 3 3 4 4 4 5 5 5 5 6 7 6 6 6 7 9 10 9 9 9 10 11 11 11 12 13 13 13
4 3 3 2 2 1 1 1 2 2 2 3 3 3 3 3 4 5 5 5 5 5 6 6 7 9 12 10 8 8 9 11 10 10 13 14 13 12 12 11 12 13 13
3 3 3 2 2 2 2 2 2 2 3 3 3 3 3 4 5 5 5 5 6 7 8 8 7 8 11 13 13 12 16 21 20 14 12 12 13 14 13 13 12 13 13
4 3 2 2 2 2 2 2 3 3 3 3 4 4 4 5 5 5 6 6 6 7 8 8 9 10 12 12 14 17 21 22 23 23 15 11 12 12 13 12 14 13 13
Wind_Direction
284 278 268 253 227 203 196 191 176 161 157 162 162 159 157 155 153 144 138 136 129 121 118 121 124 128 138 134 123 151 185 180 222 252 249 253 261 271 284 286 277 274 280
289 283 270 248 210 192 183 164 150 147 147 149 148 150 150 149 146 139 133 125 122 121 116 120 132 138 149 142 158 193 209 208 215 247 249 249 253 261 264 274 287 288 279
297 289 276 234 189 171 153 141 139 137 136 137 141 142 141 136 129 122 117 110 106 106 111 122 128 137 166 175 197 213 226 228 216 235 251 242 254 260 269 271 273 274 281
315 310 293 193 148 134 127 126 127 128 128 127 124 122 121 118 113 109 105 101 97 93 91 90 88 120 217 222 224 224 228 236 231 238 252 254 254 255 254 271 288 271 282
346 0 26 79 99 104 106 108 110 111 112 111 110 109 108 106 107 107 104 103 101 97 87 76 60 283 249 232 224 225 223 232 240 246 259 265 264 264 265 270 293 293 280
26 37 54 74 85 91 96 98 99 101 103 105 108 108 104 103 109 107 105 100 99 96 84 59 350 296 297 295 283 274 244 229 228 231 249 264 272 266 270 282 292 300 296
46 52 62 74 79 83 91 94 96 99 101 103 104 103 104 109 109 106 103 102 101 98 97 82 35 5 4 316 301 298 297 294 287 278 278 275 276 273 273 278 276 277 283
56 62 70 79 84 86 89 91 94 97 99 100 100 100 101 105 106 103 102 101 104 108 110 115 339 310 300 287 260 262 266 276 283 282 259 261 263 265 258 274 284 287 278
56 63 71 82 89 91 92 93 94 97 96 96 98 100 101 105 107 109 111 111 105 107 107 115 286 278 298 305 299 276 275 273 291 295 296 298 302 306 306 303 297 297 295
53 61 68 75 82 86 89 91 92 93 94 94 90 88 94 102 122 127 127 111 110 104 76 303 313 309 306 311 307 294 293 283 279 293 302 304 298 294 299 291 270 277 286
60 66 69 74 79 84 85 86 89 91 90 88 87 78 76 81 88 96 114 113 122 145 231 258 277 311 316 318 327 324 304 312 326 318 304 297 292 284 280 268 252 249 268
68 69 68 68 72 77 83 83 85 94 93 91 90 78 57 48 59 64 66 61 55 158 255 261 277 314 330 336 335 319 320 333 338 313 304 299 297 294 289 279 266 251 248
75 72 72 72 69 73 84 88 80 76 86 85 84 80 65 46 39 49 41 19 359 351 295 321 332 341 347 343 326 328 340 339 309 303 299 294 285 279 286 289 284 271 263
82 76 74 75 69 59 64 71 79 81 85 88 91 91 74 48 14 336 323 324 336 334 341 357 358 352 346 335 334 333 321 301 300 295 297 296 298 293 292 293 299 306 301
84 80 75 74 75 71 70 76 86 87 112 111 113 123 118 65 310 357 17 336 334 336 39 43 1 345 338 329 318 312 308 308 306 297 296 299 300 300 299 300 293 296 289
97 86 81 81 78 77 75 69 77 87 87 98 127 138 216 345 3 11 359 357 356 350 19 8 339 326 319 315 314 313 308 299 296 295 293 291 294 296 297 296 289 289 289
108 103 91 91 90 90 90 93 76 55 61 57 48 37 33 21 17 6 359 5 2 8 22 326 307 301 298 296 294 294 293 292 291 288 285 286 287 289 290 292 294 291 289
103 105 104 98 98 97 99 98 95 80 39 9 12 14 17 15 16 5 8 19 2 358 317 298 293 293 293 292 291 291 292 295 291 286 283 281 280 283 286 288 288 288 290
110 108 109 109 105 102 97 90 79 73 62 17 354 352 1 5 13 6 16 22 313 304 298 290 285 285 285 284 284 283 283 285 284 283 282 280 279 281 283 284 286 289 292
122 133 129 120 111 102 95 92 82 64 36 356 331 313 312 328 348 335 332 300 290 286 286 287 287 281 281 280 282 283 285 283 284 282 282 282 281 279 281 285 287 288 288
122 132 130 119 116 116 109 105 106 112 289 292 290 294 314 117 294 294 293 285 277 281 281 285 284 283 278 276 277 279 280 282 282 281 282 282 283 284 283 283 284 284 285
123 123 127 129 126 137 138 139 196 256 274 284 286 301 326 332 289 285 282 282 278 273 271 277 279 276 272 273 277 281 281 281 280 279 280 282 283 283 283 284 284 285 288
128 131 129 129 138 185 147 180 240 261 270 277 281 285 295 289 287 283 282 283 287 286 283 276 276 279 274 267 266 268 272 274 276 277 280 282 282 281 282 285 288 294 297
135 144 151 157 165 175 203 239 256 267 271 275 278 280 280 281 286 289 287 285 287 282 279 275 272 275 279 282 278 271 268 271 270 268 266 269 278 285 291 296 298 298 300
141 152 164 178 193 206 226 248 260 269 278 281 285 288 290 290 287 285 283 283 284 283 283 280 275 277 279 280 282 281 281 285 287 286 283 283 289 295 299 301 300 301 302
150 161 173 184 199 214 230 249 262 270 275 280 283 285 286 285 284 283 285 284 285 287 287 286 279 280 283 286 285 285 290 295 299 300 299 295 297 299 303 303 302 303 302